Terminal Aerodrome Forecast
Issued by NWS

Home | Current Version | Previous Version | Text Only | Print | Product List | Glossary On
Versions: 1 2 3 4 5 6 7 8 9 10 11 12 13 14
345
FTUS45 KFGZ 041134
TAFSEZ
TAF
KSEZ 041134Z 0412/0512 VRB05KT P6SM FEW250
     FM041800 17015G25KT P6SM SCT250
     FM050300 05006KT P6SM SCT250=

USA.gov is the U.S. government's official web portal to all federal, state and local government web resources and services.